User: anonymous   Login
Location: Lafig�re
(44.4503°N, 4.0357°E)
Time: 14:27:40
(UTC+00:00)
Language:

Cosmos 1707 - Orbit

View from above orbital plane
View from above orbital plane
View from above satellite
View from above satellite

Ground track
Ground track

The orbit data is extracted from the following two-line orbital elements,

1 16326U 85113A   20333.48349218  .00001311  00000-0  69659-4 0  9991
2 16326  82.5133  49.0837 0008865 264.6262  95.3959 15.14428165908024
Epoch (UTC): 28 November 2020 11:36:13
Eccentricity: 0.0008865
inclination: 82.5133°
perigee height: 516 km
apogee height: 529 km
right ascension of ascending node: 49.0837°
argument of perigee: 264.6262°
revolutions per day: 15.14428165
mean anomaly at epoch: 95.3959°
orbit number at epoch: 90802

The dashed part of the orbit path shows where the satellite is in the earth's shadow,  

DLR